Weather History for KLHW - October, 2013

Change the Weather History Date:

Tuesday, October 8, 2013

  Actual Average Record
Temperature  
Mean Temperature 66 °F -  
Max Temperature 72 °F 81 °F 89 °F (1990)
Min Temperature 59 °F 59 °F 44 °F (1988)
Cooling Degree Days 2    
Growing Degree Days 16 (Base 50)    
Moisture  
Dew Point 69 °F    
Average Humidity 98    
Maximum Humidity 100    
Minimum Humidity 87    
Precipitation  
Precipitation 0.71 in - - ()
Sea Level Pressure  
Sea Level Pressure 29.93 in    
Wind  
Wind Speed 8 mph (North)    
Max Wind Speed 15 mph    
Max Gust Speed 22 mph    
Visibility 9 miles    
Events Rain    
Averages and records for this station are not official NWS values.
T = Trace of Precipitation, MM = Missing Value Source: NWS Daily Summary

Daily Weather History Graph

Daily Weather History Graph

Search for Another Location

Airport or City:

Trip Planner

Search our weather history database for the weather conditions in past years. The results will help you decide how hot, cold, wet, or windy it might be!

Date:

Astronomy

Oct. 08, 2013 Rise Set
Actual Time 7:24 AM EDT 7:02 PM EDT
Civil Twilight 7:00 AM EDT 7:26 PM EDT
Nautical Twilight 6:32 AM EDT 7:54 PM EDT
Astronomical Twilight 6:03 AM EDT 8:22 PM EDT
Moon 11:04 AM EDT (10/8) 9:50 PM EDT (10/8)
Length of Visible Light 12h 25m
Length of Day
11h 37m
Waxing Crescent, 16% of the Moon is Illuminated
Oct 8
Waxing Crescent
Oct 11
First Quarter
Oct 18
Full
Oct 26
Last Quarter
Nov 3
New

Hourly Weather History & Observations

Time (EDT) Temp. Dew Point Humidity Pressure Visibility Wind Dir Wind Speed Gust Speed Precip Events Conditions
12:03 AM 73.4 °F 73.4 °F 100% 29.89 in 4.0 mi WNW 5.8 mph - N/A Rain Heavy Rain
12:08 AM 73.4 °F 73.4 °F 100% 29.89 in 1.0 mi West 15.0 mph - N/A Rain Heavy Rain
12:13 AM 71.6 °F 71.6 °F 100% 29.89 in 0.8 mi NNW 9.2 mph - N/A Rain Heavy Rain
12:18 AM 71.6 °F 71.6 °F 100% 29.87 in 1.2 mi NNW 11.5 mph - N/A Rain Heavy Rain
12:23 AM 71.6 °F 71.6 °F 100% 29.87 in 3.0 mi NNW 9.2 mph - N/A Rain Heavy Rain
12:28 AM 71.6 °F 71.6 °F 100% 29.88 in 5.0 mi NW 8.1 mph - N/A Rain Heavy Rain
12:48 AM 71.6 °F 71.6 °F 100% 29.88 in 10.0 mi NW 4.6 mph - N/A Rain Light Rain
12:58 AM 70.9 °F 70.9 °F 100% 29.89 in 10.0 mi NNE 2.3 mph - 0.62 in Rain Light Rain
1:18 AM 71.6 °F 71.6 °F 100% 29.89 in 6.0 mi Calm Calm - N/A Rain Heavy Rain
1:23 AM 71.6 °F 71.6 °F 100% 29.88 in 5.0 mi Calm Calm - N/A Rain Rain
1:28 AM 71.6 °F 71.6 °F 100% 29.88 in 7.0 mi WSW 2.3 mph - N/A Rain Rain
1:43 AM 71.6 °F 71.6 °F 100% 29.87 in 10.0 mi NW 5.8 mph - N/A Rain Light Rain
1:58 AM 71.1 °F 71.1 °F 100% 29.88 in 10.0 mi NW 2.3 mph - 0.06 in Rain Light Rain
2:13 AM 71.6 °F 71.6 °F 100% 29.87 in 10.0 mi Calm Calm - N/A   Scattered Clouds
2:23 AM 71.6 °F 71.6 °F 100% 29.87 in 10.0 mi Calm Calm - N/A Rain Light Rain
2:58 AM 71.1 °F 71.1 °F 100% 29.87 in 10.0 mi North 4.6 mph - 0.00 in Rain Light Rain
3:23 AM 71.6 °F 71.6 °F 100% 29.85 in 10.0 mi North 1.2 mph - N/A   Light Drizzle
3:28 AM 71.6 °F 71.6 °F 100% 29.85 in 10.0 mi North 2.3 mph - N/A   Mostly Cloudy
3:48 AM 71.6 °F 71.6 °F 100% 29.84 in 10.0 mi NNE 3.5 mph - N/A   Mostly Cloudy
3:58 AM 71.4 °F 71.4 °F 100% 29.85 in 10.0 mi North 4.6 mph - 0.01 in   Mostly Cloudy
4:58 AM 70.7 °F 70.7 °F 100% 29.84 in 10.0 mi North 2.3 mph - N/A   Scattered Clouds
5:58 AM 70.3 °F 70.3 °F 100% 29.88 in 10.0 mi North 9.2 mph - N/A   Mostly Cloudy
6:28 AM 69.8 °F 69.8 °F 100% 29.88 in 10.0 mi North 6.9 mph - N/A   Mostly Cloudy
6:33 AM 71.6 °F 71.6 °F 100% 29.88 in 10.0 mi North 6.9 mph - N/A   Overcast
6:48 AM 71.6 °F 71.6 °F 100% 29.88 in 10.0 mi North 6.9 mph - N/A   Overcast
6:53 AM 71.6 °F 71.6 °F 100% 29.88 in 10.0 mi NNE 5.8 mph - N/A   Overcast
6:58 AM 71.2 °F 71.2 °F 100% 29.89 in 10.0 mi North 5.8 mph - N/A   Overcast
7:03 AM 71.6 °F 71.6 °F 100% 29.88 in 10.0 mi North 8.1 mph - N/A   Overcast
7:18 AM 71.6 °F 71.6 °F 100% 29.88 in 8.0 mi North 6.9 mph - N/A   Overcast
7:28 AM 71.6 °F 71.6 °F 100% 29.89 in 6.0 mi North 8.1 mph - N/A   Overcast
7:33 AM 71.6 °F 71.6 °F 100% 29.89 in 6.0 mi North 8.1 mph - N/A   Overcast
7:38 AM 71.6 °F 71.6 °F 100% 29.89 in 5.0 mi North 8.1 mph - N/A   Light Drizzle
7:50 AM 69.8 °F 69.8 °F 100% 29.90 in 6.0 mi North 8.1 mph - N/A   Overcast
7:53 AM 69.8 °F 69.8 °F 100% 29.90 in 6.0 mi North 10.4 mph - N/A Rain Light Rain
7:58 AM 70.3 °F 70.3 °F 100% 29.91 in 7.0 mi NNW 12.7 mph - 0.00 in Rain Light Rain
8:08 AM 69.8 °F 69.8 °F 100% 29.91 in 9.0 mi North 11.5 mph - N/A Rain Light Rain
8:45 AM 69.8 °F 69.8 °F 100% 29.91 in 10.0 mi NNE 10.4 mph - N/A   Mostly Cloudy
8:50 AM 69.8 °F 69.8 °F 100% 29.92 in 10.0 mi NNE 11.5 mph - N/A   Mostly Cloudy
8:58 AM 69.3 °F 69.3 °F 100% 29.93 in 10.0 mi North 13.8 mph 19.6 mph 0.02 in   Overcast
9:03 AM 69.8 °F 69.8 °F 100% 29.92 in 10.0 mi NNE 13.8 mph 19.6 mph N/A   Overcast
9:58 AM 68.0 °F 67.8 °F 99% 29.95 in 10.0 mi North 13.8 mph 21.9 mph N/A   Overcast
10:23 AM 68.0 °F 68.0 °F 100% 29.96 in 10.0 mi NNE 12.7 mph 17.3 mph N/A   Overcast
10:53 AM 68.0 °F 68.0 °F 100% 29.97 in 10.0 mi NNE 11.5 mph 18.4 mph N/A   Overcast
10:58 AM 67.8 °F 67.8 °F 100% 29.98 in 10.0 mi NNE 10.4 mph 18.4 mph N/A   Overcast
11:58 AM 70.2 °F 69.1 °F 96% 29.98 in 10.0 mi NE 15.0 mph - N/A   Overcast
12:23 PM 71.6 °F 69.8 °F 94% 29.97 in 10.0 mi North 12.7 mph - N/A   Overcast
12:58 PM 71.8 °F 69.4 °F 92% 29.98 in 10.0 mi NNE 15.0 mph 20.7 mph N/A   Overcast
1:58 PM 70.3 °F 68.2 °F 93% 29.98 in 10.0 mi NNE 10.4 mph - N/A   Overcast
1:59 PM 69.8 °F 68.0 °F 94% 29.97 in 10.0 mi NNE 9.2 mph - N/A Rain Light Rain
2:33 PM 69.8 °F 69.8 °F 100% 29.97 in 10.0 mi NNE 11.5 mph - N/A   Overcast
2:58 PM 70.5 °F 68.7 °F 94% 29.98 in 10.0 mi NNE 10.4 mph - 0.00 in   Overcast
3:58 PM 69.8 °F 66.7 °F 90% 29.99 in 10.0 mi North 10.4 mph - N/A   Overcast
4:58 PM 68.5 °F 64.6 °F 87% 30.00 in 10.0 mi North 13.8 mph 20.7 mph N/A   Overcast
5:58 PM 66.4 °F 63.3 °F 90% 30.02 in 10.0 mi NNE 12.7 mph 20.7 mph N/A   Overcast
6:58 PM 64.8 °F 62.4 °F 92% 30.04 in 10.0 mi NNE 15.0 mph - N/A   Overcast
7:58 PM 63.5 °F 61.9 °F 94% 30.05 in 10.0 mi North 9.2 mph - N/A   Overcast
8:58 PM 62.2 °F 61.2 °F 96% 30.07 in 10.0 mi NNE 9.2 mph - N/A   Overcast
9:58 PM 61.3 °F 59.9 °F 95% 30.08 in 10.0 mi North 10.4 mph 19.6 mph N/A   Overcast
10:58 PM 60.4 °F 59.4 °F 96% 30.08 in 10.0 mi North 8.1 mph - N/A   Overcast
11:38 PM 60.8 °F 59.0 °F 94% 30.07 in 10.0 mi North 9.2 mph - N/A   Overcast
11:58 PM 59.9 °F 59.4 °F 98% 30.08 in 10.0 mi North 10.4 mph - N/A   Overcast